Location: Dittelspoint
(48.7198°N, 10.7214°E)
Time: 09:56:38
(UTC+00:00)

Cosmos 614 Rocket - Pass Details

Date: 09 April 2020
Orbit: 734 x 763 km, 74.1° (Epoch: 06 June)

Event Time Altitude Azimuth Distance (km) Brightness Sun altitude
Rises 18:31:36 0° 189° (S) 3,213 7.1 -5.8°
Reaches altitude 10° 18:33:59 10° 186° (S) 2,290 6.3 -6.2°
Maximum altitude 18:39:05 60° 108° (ESE) 874 4.0 -6.9°
Drops below altitude 10° 18:44:12 10° 29° (NNE) 2,295 6.4 -7.7°
Sets 18:46:36 0° 26° (NNE) 3,220 7.2 -8.1°
